Weather History for KBKW - February, 2014

Change the Weather History Date:

Friday, February 21, 2014

  Actual Average Record
Temperature  
Mean Temperature 49 °F 36 °F  
Max Temperature 61 °F 45 °F 70 °F (1916)
Min Temperature 36 °F 27 °F -2 °F (1968)
Degree Days  
Heating Degree Days 16 29  
Month to date heating degree days 691 658  
Since 1 July heating degree days 3970 3802  
Cooling Degree Days 0 0  
Month to date cooling degree days 0 0  
Year to date cooling degree days 0 0  
Moisture  
Dew Point 35 °F    
Average Humidity 59    
Maximum Humidity 89    
Minimum Humidity 28    
Precipitation  
Precipitation 0.23 in 0.10 in 2.10 in (2015)
Month to date precipitation 3.11 2.05  
Year to date precipitation 5.05 4.86  
Snow  
Snow 0.00 in - - ()
Month to date snowfall 24.3  
Since 1 September snowfall 59.2  
Snow Depth 0.00 in    
Sea Level Pressure  
Sea Level Pressure 29.84 in    
Wind  
Wind Speed 13 mph (WSW)    
Max Wind Speed 24 mph    
Max Gust Speed 39 mph    
Visibility 7 miles    
Events Rain    
T = Trace of Precipitation, MM = Missing Value Source: NWS Daily Summary

Daily Weather History Graph

Daily Weather History Graph

Search for Another Location

Airport or City:

Trip Planner

Search our weather history database for the weather conditions in past years. The results will help you decide how hot, cold, wet, or windy it might be!

Date:

Astronomy

Feb. 21, 2014 Rise Set
Actual Time 7:06 AM EST 6:09 PM EST
Civil Twilight 6:40 AM EST 6:36 PM EST
Nautical Twilight 6:09 AM EST 7:07 PM EST
Astronomical Twilight 5:39 AM EST 7:37 PM EST
Moon No Moon Rise 10:37 AM EST (2/21)
Length of Visible Light 11h 56m
Length of Day
11h 03m
Waning Gibbous, 61% of the Moon is Illuminated
Feb 21
Waning Gibbous
Feb 22
Last Quarter
Mar 1
New
Mar 8
First Quarter
Mar 16
Full

Hourly Weather History & Observations

Time (EST) Temp. Windchill Dew Point Humidity Pressure Visibility Wind Dir Wind Speed Gust Speed Precip Events Conditions
12:51 AM 59.0 °F - 46.9 °F 64% 29.76 in 10.0 mi SSE 11.5 mph - N/A   Scattered Clouds
1:51 AM 60.1 °F - 46.9 °F 62% 29.73 in 10.0 mi SSE 12.7 mph 23.0 mph N/A   Scattered Clouds
2:51 AM 60.1 °F - 46.9 °F 62% 29.69 in 10.0 mi South 9.2 mph 20.7 mph N/A   Clear
3:51 AM 61.0 °F - 46.9 °F 60% 29.68 in 10.0 mi South 15.0 mph 23.0 mph N/A   Mostly Cloudy
4:51 AM 60.1 °F - 46.9 °F 62% 29.64 in 10.0 mi SSE 12.7 mph - N/A   Overcast
5:39 AM 57.0 °F - 48.9 °F 74% 29.74 in 8.0 mi WSW 13.8 mph 21.9 mph 0.01 in Rain Light Rain
5:51 AM 55.0 °F - 50.0 °F 83% 29.70 in 7.0 mi SW 10.4 mph 17.3 mph 0.03 in Rain Light Rain
6:19 AM 54.0 °F - 48.9 °F 83% 29.72 in 9.0 mi SW 13.8 mph 25.3 mph 0.03 in Rain Light Rain
6:51 AM 54.0 °F - 50.0 °F 86% 29.70 in 10.0 mi SSW 16.1 mph 21.9 mph 0.04 in   Overcast
7:11 AM 48.9 °F - 44.1 °F 83% 29.79 in 5.0 mi West 23.0 mph 32.2 mph 0.01 in Rain Rain
7:18 AM 46.9 °F - 43.0 °F 86% 29.79 in 4.0 mi West 13.8 mph 35.7 mph 0.04 in Rain Heavy Rain
7:26 AM 46.9 °F - 43.0 °F 86% 29.79 in 5.0 mi West 9.2 mph - 0.06 in Rain Rain
7:34 AM 46.9 °F - 44.1 °F 90% 29.80 in 5.0 mi WSW 9.2 mph - 0.08 in Rain Rain
7:43 AM 46.9 °F - 44.1 °F 90% 29.78 in 2.5 mi WSW 6.9 mph - 0.10 in Rain Rain
7:49 AM 46.4 °F 42.4 °F 44.6 °F 93% 29.77 in 3.0 mi SSW 8.1 mph - 0.11 in Rain Rain
7:51 AM 46.9 °F - 44.1 °F 90% 29.76 in 3.0 mi SW 10.4 mph - 0.12 in Rain Rain
7:59 AM 46.0 °F 40.2 °F 43.0 °F 89% 29.78 in 7.0 mi West 12.7 mph - 0.01 in Rain Light Rain
8:27 AM 45.0 °F 37.9 °F 42.1 °F 90% 29.82 in 2.5 mi West 16.1 mph 24.2 mph 0.02 in Rain Light Rain
8:31 AM 45.0 °F 37.6 °F 41.0 °F 86% 29.82 in 3.0 mi West 17.3 mph 24.2 mph 0.02 in Rain Light Rain
8:38 AM 43.0 °F 35.7 °F 39.9 °F 89% 29.83 in 2.5 mi West 15.0 mph 24.2 mph 0.02 in Rain Light Rain
8:41 AM 43.0 °F 35.7 °F 39.9 °F 89% 29.83 in 3.0 mi West 15.0 mph 24.2 mph 0.02 in Rain Light Rain
8:51 AM 42.1 °F 33.6 °F 39.0 °F 89% 29.85 in 3.0 mi WNW 18.4 mph 24.2 mph 0.02 in Rain Light Rain
8:59 AM 41.0 °F 32.8 °F 37.0 °F 86% 29.87 in 2.0 mi WNW 16.1 mph 26.5 mph 0.00 in Rain Light Rain
9:08 AM 39.0 °F 30.3 °F 36.0 °F 89% 29.88 in 1.8 mi West 16.1 mph 31.1 mph 0.00 in Rain Light Rain
9:16 AM 39.0 °F 30.6 °F 36.0 °F 89% 29.89 in 2.5 mi WNW 15.0 mph 23.0 mph 0.01 in Rain Light Rain
9:37 AM 37.9 °F 29.2 °F 35.1 °F 89% 29.92 in 3.0 mi West 15.0 mph 23.0 mph 0.02 in Rain Light Rain
9:51 AM 37.9 °F 27.6 °F 33.1 °F 83% 29.95 in 7.0 mi West 20.7 mph 39.1 mph 0.02 in Rain Light Rain
10:01 AM 37.0 °F 27.7 °F 32.0 °F 82% 29.94 in 8.0 mi West 16.1 mph 24.2 mph 0.00 in Rain Light Rain
10:20 AM 37.0 °F 31.6 °F 30.9 °F 79% 29.92 in 10.0 mi WSW 6.9 mph - 0.00 in   Overcast
10:51 AM 37.9 °F 30.9 °F 28.9 °F 70% 29.92 in 10.0 mi WSW 10.4 mph - 0.00 in   Overcast
11:51 AM 39.9 °F 32.1 °F 30.0 °F 68% 29.88 in 10.0 mi SW 13.8 mph 21.9 mph N/A   Clear
12:51 PM 43.0 °F 34.8 °F 27.0 °F 53% 29.86 in 10.0 mi WSW 18.4 mph 25.3 mph N/A   Clear
1:51 PM 46.0 °F 39.9 °F 25.0 °F 44% 29.83 in 10.0 mi West 13.8 mph 23.0 mph N/A   Clear
2:51 PM 50.0 °F - 21.0 °F 32% 29.82 in 10.0 mi WSW 19.6 mph 23.0 mph N/A   Clear
3:51 PM 50.0 °F - 19.9 °F 31% 29.83 in 10.0 mi West 19.6 mph 31.1 mph N/A   Clear
4:51 PM 48.0 °F - 17.1 °F 29% 29.87 in 10.0 mi WSW 16.1 mph 26.5 mph N/A   Clear
5:51 PM 46.0 °F 39.9 °F 15.1 °F 29% 29.90 in 10.0 mi WNW 13.8 mph - N/A   Clear
6:51 PM 43.0 °F 37.7 °F 16.0 °F 34% 29.95 in 10.0 mi WNW 9.2 mph - N/A   Clear
7:51 PM 41.0 °F 36.4 °F 17.1 °F 38% 29.99 in 10.0 mi WNW 6.9 mph - N/A   Clear
8:51 PM 39.9 °F 35.8 °F 17.1 °F 40% 30.02 in 10.0 mi West 5.8 mph - N/A   Clear
9:51 PM 39.0 °F 34.8 °F 17.1 °F 41% 30.05 in 10.0 mi WSW 5.8 mph - N/A   Clear
10:51 PM 37.0 °F 31.6 °F 17.1 °F 44% 30.08 in 10.0 mi West 6.9 mph - N/A   Clear
11:51 PM 37.0 °F 33.3 °F 16.0 °F 42% 30.07 in 10.0 mi WNW 4.6 mph - N/A   Clear